Location: *
(50.2903°S, 172.5375°W)
Time: 05:53:20
(UTC+00:00)

CZ-4C R/B - Pass Details

Date: 17 November 2019
Orbit: 409 x 495 km, 97.6° (Epoch: 14 December)

Event Time Altitude Azimuth Distance (km) Brightness Sun altitude
Rises 14:50:02 0° 163° (SSE) 2,481 7.8 -6.1°
Reaches altitude 10° 14:52:06 10° 157° (SSE) 1,615 6.9 -5.9°
Maximum altitude 14:55:29 51° 80° (E) 597 3.8 -5.5°
Drops below altitude 10° 14:58:56 10° 2° (N) 1,638 5.4 -5.0°
Sets 15:01:02 0° 357° (N) 2,521 6.3 -4.8°
